Location: River House Observatory
(37.8577°N, 76.3548°W)
Time: 20:29:08
(UTC-04:00)

NOSS 3-1 (C) - Visible Passes

Search period start: 20 October 2014 00:00
Search period end: 30 October 2014 00:00
Orbit: 892 x 1317 km, 63.4° (Epoch: 19 October)

Date Brightness Start Highest point End Pass type
(mag) Time Alt. Az. Time Alt. Az. Time Alt. Az.
20 Oct 6.1 05:54:29 10° N 05:57:37 13° NNE 06:00:52 10° NE visible
22 Oct 6.0 06:13:46 10° N 06:19:14 22° NE 06:25:00 10° E visible
23 Oct 6.1 05:29:10 10° N 05:33:18 15° NNE 05:37:35 10° ENE visible
24 Oct 6.2 04:45:04 10° N 04:47:10 11° NNE 04:49:19 10° NE visible
24 Oct 5.3 06:33:34 10° NNW 06:40:25 37° NE 06:47:43 10° ESE visible
25 Oct 5.8 05:48:43 10° NNW 05:54:45 26° NE 06:01:09 10° E visible
26 Oct 6.1 05:04:00 10° N 05:08:55 19° NE 05:14:04 10° ENE visible
26 Oct 4.5 06:53:40 10° NNW 07:01:12 68° NE 07:09:15 10° SE visible
27 Oct 6.2 04:19:32 10° N 04:22:53 13° NNE 04:26:21 10° NE visible
27 Oct 5.0 06:08:37 10° NNW 06:15:47 46° NE 06:23:26 10° ESE visible
28 Oct 5.5 05:23:41 10° NNW 05:30:13 32° NE 05:37:09 10° ESE visible
29 Oct 5.9 04:38:53 10° N 04:44:28 22° NE 04:50:21 10° E visible
29 Oct 4.1 06:28:49 10° NNW 06:36:26 84° ENE 06:44:35 10° SSE visible
